Location: Ballard
(38.3614°N, 94.1431°W)
Time: 08:25:49
(UTC-06:00)

Envisat - Pass Details

Date: 28 October 2019
Orbit: 764 x 766 km, 98.1° (Epoch: 12 November)

Event Time Altitude Azimuth Distance (km) Brightness Sun altitude
Rises 20:52:03 0° 219° (SW) 3,219 6.6 -30.0°
Reaches altitude 10° 20:56:14 10° 253° (WSW) 2,299 6.2 -30.8°
Maximum altitude 20:57:45 11° 270° (W) 2,213 6.2 -31.1°
Drops below altitude 10° 20:59:17 10° 288° (WNW) 2,304 6.3 -31.4°
Sets 21:03:30 0° 322° (NW) 3,237 6.8 -32.2°
